Theta_e
360 361 362 362 363 364 362 362 364 364 365 363 365 363 362 360 361 362 364 363 361 361 361 359 362 358 359 358 359 358 357 357 357 358 358 357 361 362 363 363 363 361 360 359 356 354 354 355 356 355 355 356 355 354 355 355 355 354 351 354 354 353 353 353 353 353 352 352 352 352 353 352 352 352 351 351 351 350 350 350 350 350 350 350 350
360 362 362 362 363 365 364 363 362 365 363 363 363 363 361 360 361 362 362 362 361 361 360 358 357 358 359 358 356 354 355 354 355 355 359 359 361 361 363 363 363 363 362 359 357 355 353 356 356 355 355 355 355 354 354 354 353 354 353 353 354 354 354 353 353 353 352 351 352 352 353 353 353 352 352 352 352 351 351 351 351 351 351 351 351
361 362 361 361 362 363 362 363 361 362 365 364 366 364 363 361 364 363 362 362 361 362 359 357 358 357 357 355 353 353 352 356 354 356 354 361 360 362 366 363 364 363 363 361 358 357 355 357 358 356 355 357 355 354 354 354 354 352 354 354 354 355 354 353 354 353 352 352 352 352 353 354 354 353 353 353 353 352 352 352 352 351 351 351 351
364 364 363 362 362 360 362 362 361 363 366 365 365 365 363 364 365 365 364 364 363 360 359 355 355 353 354 354 353 352 350 353 348 352 356 359 362 362 363 363 364 363 363 362 358 358 358 358 357 357 356 356 356 356 355 355 355 355 354 352 353 354 353 354 353 353 353 353 353 354 353 353 353 354 354 354 354 353 353 353 353 353 353 352 352
364 364 365 362 362 364 362 364 365 366 366 367 366 366 364 363 365 366 365 364 361 359 357 354 351 350 351 350 350 350 353 353 353 352 352 356 359 360 361 363 364 363 362 361 360 356 359 358 357 358 357 357 357 356 356 355 355 355 354 354 354 353 353 353 353 354 353 354 353 354 354 353 353 354 354 352 352 352 353 352 352 353 354 353 353
365 365 364 363 364 364 364 363 365 367 366 368 364 365 361 363 363 363 359 361 358 354 351 351 348 349 347 348 349 350 351 347 348 349 353 355 358 361 361 361 363 363 364 361 360 359 358 358 358 358 358 356 356 356 356 356 355 355 354 354 355 355 354 353 353 353 353 353 353 353 351 353 354 354 354 354 353 353 352 353 352 353 353 353 353
367 366 364 364 363 363 364 364 367 367 364 366 365 364 363 363 363 360 361 359 355 351 352 350 349 348 349 351 349 350 350 348 350 349 352 359 360 358 360 361 361 363 363 363 360 360 359 358 358 357 358 357 357 357 355 354 353 351 353 353 355 354 354 353 353 352 352 353 352 351 348 349 351 352 353 352 353 353 353 353 353 353 353 353 353
368 368 365 364 362 362 364 367 368 366 366 366 365 363 365 363 363 361 358 356 353 348 350 348 347 346 350 351 351 352 349 350 350 349 351 358 358 361 361 361 363 362 360 363 362 357 359 357 358 357 358 358 357 356 354 353 352 351 352 353 354 354 352 352 354 353 353 354 352 350 348 348 350 349 351 352 352 350 352 353 353 353 353 353 353
368 368 365 364 363 364 364 367 368 366 366 366 363 364 364 360 363 363 361 358 350 345 346 346 344 345 347 347 349 353 350 350 351 351 355 355 358 356 359 361 363 360 363 363 363 363 362 359 357 357 358 357 354 356 352 353 353 351 351 353 354 352 350 351 352 352 351 353 352 351 350 349 350 349 349 350 349 349 351 351 353 353 353 353 353
367 367 366 365 365 365 366 368 367 367 366 366 363 365 365 363 360 362 361 359 350 346 345 344 343 344 345 345 352 349 350 351 352 354 352 352 354 356 357 358 361 360 361 363 363 362 362 360 359 358 357 355 354 355 356 355 353 352 353 353 353 353 352 352 351 352 351 350 350 352 350 351 350 347 346 347 348 349 349 349 350 351 350 350 351
367 367 366 365 365 366 367 368 367 366 366 364 363 364 363 362 360 359 361 357 351 348 349 348 345 344 342 345 350 352 350 349 350 349 350 348 350 354 353 359 359 360 362 361 361 361 360 361 360 360 360 352 354 355 356 355 354 353 353 351 353 353 353 353 352 352 352 351 352 352 351 351 351 349 346 344 345 346 347 348 349 351 350 350 351
368 368 367 366 366 366 367 368 366 366 364 361 361 362 362 359 359 359 357 355 355 352 351 348 344 344 343 345 349 350 350 350 346 347 350 350 351 355 352 354 356 355 354 359 360 359 361 360 360 360 361 357 354 354 355 355 355 354 353 355 354 353 354 354 353 352 353 352 352 351 351 350 349 349 348 345 345 346 345 346 348 350 350 349 350
368 368 367 367 367 367 367 367 366 365 364 363 364 364 365 360 360 361 355 351 350 350 349 346 343 339 343 339 345 349 351 349 344 345 347 348 352 352 353 353 355 355 358 359 359 359 357 359 359 360 362 364 360 355 354 355 355 354 353 353 353 353 353 353 353 352 352 352 351 349 351 349 348 350 347 346 345 344 345 345 346 349 349 350 351
367 369 368 368 367 366 366 366 366 365 366 366 366 364 363 360 359 354 356 351 349 346 345 344 339 333 332 334 337 345 348 344 342 342 346 348 350 352 354 349 348 351 355 358 359 358 357 358 360 360 360 362 361 361 358 355 356 353 350 353 353 352 352 349 350 349 350 350 350 349 347 347 348 346 342 345 345 344 344 344 345 347 348 349 350
368 368 367 368 367 366 366 366 366 366 365 364 363 361 360 360 359 353 351 352 349 349 347 344 334 338 341 335 331 331 341 342 342 342 344 346 348 348 350 348 350 354 356 353 352 355 356 357 359 360 361 360 360 360 360 355 356 354 352 350 352 350 349 348 347 348 349 350 348 349 347 347 347 346 346 346 346 345 346 347 347 347 347 347 348
367 367 368 368 367 367 366 366 366 367 365 363 362 359 361 359 357 356 354 347 345 347 349 346 342 338 330 332 333 330 327 333 338 342 343 345 345 345 350 350 353 359 354 349 350 354 355 356 355 356 357 358 358 360 361 360 357 355 353 353 353 352 353 352 352 348 350 351 351 350 350 350 350 350 349 349 347 347 348 347 346 348 348 348 349
366 367 367 368 368 367 366 367 366 367 366 364 363 360 361 360 359 357 354 347 343 344 348 346 345 345 336 335 331 328 327 333 332 339 341 340 342 344 351 350 353 355 350 351 356 354 353 356 357 356 355 356 357 357 358 357 359 359 355 353 354 353 352 353 353 353 353 353 352 352 352 351 351 351 351 351 350 350 349 348 348 349 350 350 350
366 367 367 367 368 368 368 367 367 366 365 363 363 361 360 359 359 357 354 353 348 344 343 349 347 347 346 343 343 334 332 336 335 329 344 343 346 347 348 347 354 351 354 353 351 349 350 351 356 357 355 355 356 354 354 355 356 354 353 358 353 352 353 354 352 352 351 351 350 350 350 348 348 347 346 345 346 346 346 347 347 348 347 347 347
365 367 367 368 368 369 368 368 367 367 366 364 361 360 359 360 359 356 354 354 350 344 341 343 348 349 346 344 344 344 341 337 332 336 332 340 341 342 344 346 347 350 348 348 342 342 346 351 352 354 356 356 355 356 355 353 353 355 350 352 351 350 351 350 350 348 350 348 347 348 348 346 346 345 344 344 343 343 343 343 343 343 343 343 344
365 368 368 368 369 369 369 368 367 366 364 363 361 361 361 360 359 358 357 354 350 345 341 341 339 343 347 345 345 346 345 343 343 336 334 332 336 339 341 341 344 342 346 348 341 342 342 348 346 349 352 356 355 354 352 352 350 352 352 350 347 347 349 349 349 349 346 347 347 346 345 344 344 343 343 342 343 343 343 342 342 342 342 342 342
367 367 369 368 368 369 369 368 367 366 363 362 362 362 361 358 356 354 353 353 351 349 345 344 341 340 344 344 343 343 343 342 344 343 337 332 331 334 336 339 340 341 342 345 349 346 347 349 348 349 350 351 354 354 352 352 352 353 350 350 350 349 346 347 348 348 348 346 342 342 341 340 338 337 338 340 340 341 342 342 342 341 342 342 341
367 368 369 369 369 369 368 367 367 364 362 362 362 361 360 359 357 355 354 352 352 350 346 346 345 344 344 345 341 340 341 340 339 338 339 341 332 332 333 334 332 336 344 342 346 345 346 346 346 348 348 349 349 351 353 353 355 353 353 350 350 351 350 347 347 343 342 344 344 342 342 342 342 341 340 339 338 339 339 340 340 341 341 341 340
365 367 367 368 369 369 367 367 367 366 362 362 361 361 359 358 356 356 354 352 351 350 349 349 348 348 345 344 341 339 339 337 338 337 337 336 333 331 332 333 331 332 342 343 347 346 346 346 345 344 349 348 348 351 351 351 358 355 352 350 349 350 350 348 346 344 346 346 345 346 343 342 342 343 343 343 343 342 342 342 343 343 343 343 343
366 364 366 365 368 367 368 367 366 363 361 362 362 363 361 358 356 354 353 352 353 351 350 348 346 346 344 341 342 341 341 338 338 341 338 337 335 334 333 337 335 333 341 344 345 345 347 342 343 343 347 346 349 352 352 353 352 353 354 353 351 349 349 349 348 348 348 347 346 346 347 346 344 342 342 341 341 342 341 341 341 342 342 342 342
363 363 364 365 366 366 365 363 362 362 362 362 362 364 362 358 357 354 353 352 350 351 348 348 346 343 340 340 341 341 340 342 340 337 339 340 337 334 333 335 332 334 341 340 338 343 344 343 343 344 346 349 347 351 352 351 347 353 352 351 350 349 348 348 348 347 348 347 346 346 346 346 346 346 342 340 339 339 340 341 341 341 342 342 342
362 363 365 366 366 366 366 365 365 364 362 363 363 364 362 358 357 354 352 353 352 351 350 348 349 347 346 344 342 341 341 341 341 340 337 336 335 333 337 336 335 332 340 339 343 335 336 342 343 350 349 348 346 349 351 346 347 353 350 349 349 346 346 345 345 344 343 343 342 343 343 343 343 344 346 344 344 344 344 343 343 343 342 343 343
363 366 368 367 367 367 367 366 364 363 362 362 362 363 361 359 357 355 353 354 352 350 349 348 347 347 347 347 344 342 343 343 341 341 341 339 338 338 336 332 330 331 332 338 339 337 333 341 342 342 349 352 349 350 350 349 349 347 345 351 351 347 345 343 341 341 341 342 342 342 343 342 342 342 342 343 345 343 343 343 344 344 344 344 344
366 367 367 367 367 366 366 364 364 362 362 362 363 361 360 357 356 355 353 353 351 351 350 349 347 348 347 347 348 341 346 344 344 342 342 342 342 341 339 336 330 327 331 331 333 334 338 336 343 346 349 349 350 350 347 344 347 344 343 348 351 351 346 343 341 340 340 340 340 341 341 341 341 341 342 342 342 341 341 341 342 343 344 344 344
364 366 366 367 367 367 366 364 363 362 362 362 362 362 360 357 356 354 353 351 351 351 350 349 349 346 347 348 346 345 347 349 347 345 347 348 345 344 341 337 336 330 329 328 332 330 336 334 333 346 349 349 352 350 351 350 348 346 350 350 351 352 346 340 339 338 338 338 338 338 338 339 340 340 341 341 340 340 340 341 341 341 342 342 342
362 364 365 366 366 366 366 365 363 362 362 361 362 362 360 357 356 355 353 353 351 351 351 349 349 349 347 347 346 344 348 348 345 345 348 348 345 344 343 342 342 334 333 329 330 335 334 339 335 340 346 348 346 349 349 349 347 349 350 350 349 349 341 339 339 339 338 337 335 334 335 336 336 336 336 335 336 337 338 339 340 339 340 341 341
363 364 364 364 365 365 365 364 363 361 362 361 362 361 359 357 355 353 353 352 351 350 351 349 348 348 347 345 348 345 348 345 345 344 348 347 346 345 345 345 343 340 339 335 329 337 337 334 338 338 342 346 343 346 347 348 349 348 351 350 350 345 339 345 338 337 336 335 334 333 332 331 332 333 333 333 334 336 337 338 339 339 339 340 340
361 363 363 362 363 363 363 361 361 361 362 360 360 361 359 357 355 353 352 351 349 350 349 349 347 348 347 346 348 347 348 347 346 345 346 347 347 344 345 344 344 343 342 338 333 332 338 334 339 343 343 344 347 344 345 346 351 344 350 348 351 345 350 346 343 337 336 333 333 332 330 329 330 332 333 333 334 336 337 338 337 337 337 338 338
361 361 361 362 364 363 362 362 361 362 362 361 362 360 358 357 356 355 353 351 349 349 350 349 348 348 347 346 347 347 350 347 346 345 344 346 347 344 346 344 342 344 342 339 335 335 341 341 340 339 344 344 341 345 344 343 346 348 347 349 350 346 346 346 346 340 335 333 331 330 329 329 329 330 331 333 334 336 336 337 336 335 335 334 333
361 360 361 362 363 363 362 363 363 364 365 364 361 360 358 356 356 354 353 351 350 350 349 349 349 347 348 347 346 347 349 346 346 345 344 343 344 341 343 342 341 343 344 340 337 335 335 342 338 342 342 344 339 347 343 341 342 346 345 347 349 348 347 347 345 343 336 334 330 328 328 328 329 329 330 332 332 333 333 333 331 329 329 329 327
361 361 361 361 363 364 363 363 364 364 364 363 362 360 358 357 355 354 353 351 350 349 348 348 349 348 347 347 345 347 347 345 346 345 344 345 343 342 342 342 341 341 344 343 339 337 335 337 341 339 339 342 339 342 345 344 347 347 346 346 345 346 349 347 344 343 338 334 331 329 328 327 328 328 328 330 330 328 327 325 324 325 324 323 323
359 361 362 362 363 364 362 362 363 363 363 363 362 360 358 357 356 355 353 352 351 350 349 349 348 348 347 346 345 346 346 344 345 345 345 345 345 344 343 345 344 343 345 344 343 339 339 336 340 338 341 340 342 344 345 347 343 345 344 345 349 347 347 347 347 345 341 333 331 329 328 327 327 327 326 326 325 324 322 321 322 323 323 323 322
359 360 361 362 363 363 361 361 362 362 362 362 361 359 358 358 357 356 354 353 352 351 351 350 349 349 347 347 346 346 346 344 345 344 344 345 344 344 343 344 343 343 344 344 343 343 341 338 339 342 344 344 344 346 346 342 343 346 347 346 345 346 348 345 343 344 337 331 331 330 329 329 329 328 327 326 326 324 324 323 322 322 321 321 321
358 358 359 360 361 362 362 362 362 363 363 362 362 360 358 357 356 356 355 354 352 352 351 351 350 349 348 347 347 347 346 344 344 344 345 345 344 343 342 343 344 344 344 345 344 344 342 340 341 340 343 339 342 343 346 345 342 340 343 346 347 346 346 344 342 340 340 339 339 339 335 333 330 327 326 327 326 324 324 323 322 321 321 320 316
357 357 357 359 360 361 361 362 361 362 362 362 361 361 359 358 356 355 354 353 352 352 351 350 349 349 348 347 348 347 346 345 344 345 345 344 343 343 343 344 344 344 342 343 344 343 342 340 341 342 341 343 343 340 344 343 343 342 340 340 341 345 346 343 341 342 341 339 338 335 334 333 331 331 326 322 323 323 324 324 322 321 321 319 316
356 356 356 357 359 360 360 361 362 362 362 361 361 361 360 358 356 355 354 353 352 351 351 350 349 348 347 347 346 347 347 347 346 347 347 345 344 342 344 344 344 343 341 342 343 341 341 340 338 338 341 340 341 343 343 341 339 339 340 339 336 338 340 342 340 337 339 339 338 335 335 334 333 330 324 325 326 326 325 325 326 325 323 319 318
358 357 358 358 358 359 359 360 361 361 360 360 360 360 359 358 357 354 354 353 352 351 351 349 349 348 348 347 347 347 348 344 342 342 344 342 345 342 344 345 344 343 343 342 343 341 341 340 339 341 339 338 339 339 339 338 337 336 338 336 335 336 336 334 338 338 336 334 335 337 333 334 333 335 336 336 336 334 330 329 330 330 325 319 318
359 359 359 358 358 358 358 359 360 359 359 360 348 336 341 357 357 355 354 354 353 352 351 349 348 348 347 347 347 342 340 340 339 339 337 337 338 342 346 345 344 343 342 342 341 341 340 338 337 338 337 337 337 340 339 341 340 339 337 336 332 333 334 334 335 336 337 333 332 334 334 337 334 334 334 332 332 334 333 332 331 329 326 321 320
359 360 359 358 357 357 357 357 358 358 358 357 335 330 332 336 352 356 354 354 353 352 351 350 349 348 348 348 349 345 342 340 343 340 340 337 336 336 337 341 341 345 343 341 341 341 339 338 338 339 337 337 337 340 340 340 338 338 338 338 335 334 333 330 328 334 338 335 334 333 333 337 337 332 333 333 332 332 332 331 328 327 323 322 321
360 360 359 359 359 358 357 357 357 357 358 340 329 328 330 330 336 355 355 354 353 351 351 350 350 349 348 347 347 347 345 345 346 345 341 337 334 334 334 334 335 336 337 344 343 341 341 338 338 338 337 337 339 341 339 338 339 339 340 338 336 335 334 333 332 331 336 338 336 332 331 335 336 334 333 333 332 332 330 327 324 324 322 321 320
361 360 359 358 358 359 358 357 356 357 357 336 328 326 328 327 328 339 355 355 353 351 351 350 350 350 350 348 346 346 346 342 345 346 346 344 334 331 332 333 333 332 330 331 336 343 344 342 339 338 339 340 340 341 342 341 344 339 337 334 334 334 334 332 332 332 334 338 334 330 328 330 332 330 327 330 330 331 329 326 324 324 322 320 320
359 359 359 359 359 359 358 358 358 358 358 335 325 324 325 325 326 333 354 354 354 352 351 351 351 351 351 348 346 345 346 347 347 346 347 346 346 345 342 342 341 339 332 329 330 336 342 342 342 340 343 346 343 346 346 344 339 336 335 332 333 332 332 331 333 333 335 337 332 329 326 328 331 327 325 327 328 330 331 325 322 321 321 319 318
357 357 357 357 358 358 358 357 357 357 357 329 323 322 321 321 324 328 352 354 354 353 352 352 353 352 352 349 348 346 347 347 347 345 346 345 345 344 344 343 343 343 343 341 340 341 342 342 344 343 344 348 347 346 346 344 341 339 338 335 333 332 332 334 333 333 334 337 336 330 322 325 328 325 325 326 326 326 326 320 320 320 319 316 315
358 358 359 359 357 357 358 357 356 356 357 326 322 321 320 320 322 338 349 353 353 352 352 353 353 354 352 350 348 348 348 347 338 332 340 347 346 343 342 342 343 344 344 343 335 337 344 345 345 344 346 349 339 347 345 341 339 339 335 334 334 332 330 328 326 327 327 332 333 329 324 323 327 322 323 324 323 322 323 322 317 317 316 315 315
357 357 357 357 358 358 357 356 356 355 356 334 320 318 318 318 323 343 348 351 352 351 352 353 353 353 351 350 349 348 348 348 336 326 330 339 346 342 341 341 342 342 343 347 332 329 329 330 330 331 331 328 323 320 321 326 335 335 333 330 328 329 328 325 325 325 326 327 330 328 323 320 323 323 320 320 320 319 319 320 321 316 316 314 314
355 356 357 357 357 357 357 356 356 355 356 336 316 316 317 316 326 345 348 350 351 350 351 352 352 352 350 342 346 349 349 348 327 324 325 337 344 342 341 340 340 340 342 343 343 338 324 323 322 324 323 324 322 322 320 319 319 328 334 329 331 329 326 326 323 323 323 326 326 327 323 319 321 322 319 320 319 319 321 322 321 319 318 314 312
357 358 357 356 357 359 357 357 343 352 356 337 315 317 316 315 327 348 350 351 349 350 350 350 351 349 350 343 338 343 345 341 321 322 322 332 344 342 341 340 338 338 340 343 341 339 337 336 335 335 334 329 335 337 335 321 321 327 335 336 332 330 325 324 322 323 320 322 327 327 319 318 318 318 318 315 312 315 318 320 320 321 322 321 320
Wind_Speed
3 3 2 2 2 3 3 3 3 3 3 3 3 3 3 3 3 3 3 3 4 4 4 4 0 3 3 2 1 1 1 1 1 1 1 1 1 2 5 5 5 5 4 4 3 4 6 7 5 5 5 6 6 6 6 6 7 8 4 7 8 8 8 8 8 7 7 7 6 6 6 6 6 5 4 4 3 3 3 3 3 3 3 3 2
3 3 3 3 3 3 3 3 3 3 3 3 2 2 2 2 2 2 3 3 4 4 4 3 3 1 2 2 2 2 1 2 2 2 2 2 2 1 6 5 5 5 4 4 3 6 8 9 7 7 6 7 5 7 6 6 6 4 6 8 9 7 8 7 7 8 7 7 6 7 7 6 5 5 6 6 5 4 4 4 4 3 4 3 4
3 3 3 3 3 3 3 3 3 3 3 3 2 2 2 2 2 2 2 3 3 3 3 3 2 2 1 2 2 2 2 2 3 2 3 2 2 2 2 6 6 6 4 3 3 6 7 8 7 7 6 6 6 5 6 7 4 4 7 5 7 7 7 8 7 7 7 7 6 6 6 7 7 5 5 5 5 5 5 5 5 5 4 5 4
3 3 3 3 3 3 3 4 4 3 3 3 3 2 2 2 1 1 2 2 3 3 3 2 2 1 1 1 1 1 1 2 3 2 3 2 2 2 2 2 5 5 5 3 2 4 6 7 8 7 7 7 7 6 7 8 6 7 6 5 6 5 4 5 5 7 7 7 6 6 8 8 7 6 6 6 6 6 6 6 6 6 6 6 5
4 4 4 4 4 4 4 4 4 3 3 3 3 2 2 2 1 1 2 2 3 2 1 2 1 0 0 1 1 1 1 1 2 2 3 2 1 2 2 1 1 4 4 3 4 2 6 7 8 8 9 9 8 8 9 8 7 7 7 8 7 7 6 5 4 6 7 7 6 7 8 7 8 7 7 7 6 7 6 6 6 6 7 7 7
5 4 4 4 4 4 4 4 3 3 3 2 2 2 2 2 2 2 2 3 3 2 2 1 1 1 0 1 1 2 2 2 2 3 3 2 2 1 1 1 1 1 2 4 4 2 1 4 7 8 9 9 8 8 9 8 8 8 8 8 7 7 6 6 5 5 5 4 6 7 7 9 9 9 8 8 7 6 7 7 7 7 7 7 8
5 5 5 5 5 5 4 4 3 2 3 2 2 2 2 2 1 3 3 3 2 1 2 1 0 2 1 0 1 2 2 3 3 3 2 2 2 1 1 1 2 1 2 2 6 5 2 0 3 6 9 9 9 9 8 7 7 5 6 8 8 7 7 7 5 4 4 4 5 1 2 6 12 9 9 8 7 6 7 7 8 8 8 8 8
6 5 5 5 5 5 4 3 2 3 2 2 3 3 2 2 1 2 3 3 2 1 1 2 1 1 0 0 0 1 2 2 2 2 1 1 1 0 1 1 2 1 1 2 1 4 4 1 0 5 7 8 8 8 7 7 6 5 8 8 9 5 3 5 6 5 5 7 6 2 4 5 7 11 7 6 6 5 7 7 8 9 9 8 9
6 6 6 6 5 5 4 3 2 3 2 2 3 3 2 2 1 1 2 2 1 2 2 2 2 1 1 0 0 0 1 1 1 2 1 1 1 1 1 1 1 2 2 1 1 1 6 2 1 4 6 7 5 7 8 7 7 7 8 9 8 5 5 6 6 6 8 8 6 7 6 6 9 8 5 6 7 10 10 11 11 11 10 8 7
6 6 6 6 5 5 4 3 3 3 3 3 3 2 2 2 2 1 1 1 1 1 1 1 1 0 1 1 1 0 0 1 2 1 1 1 1 1 1 1 0 1 1 1 1 1 1 5 3 4 1 1 3 5 5 7 7 9 9 8 9 9 8 8 7 7 6 6 8 7 5 8 6 4 2 6 8 8 11 12 11 11 9 9 6
7 7 6 6 5 5 4 4 3 3 3 4 4 3 2 0 2 2 1 1 1 1 1 1 0 1 1 2 1 0 0 1 2 1 0 1 1 0 0 1 0 0 1 1 1 1 1 1 1 1 2 3 3 4 5 5 8 8 8 8 10 10 9 9 8 8 8 8 8 7 6 6 5 3 3 3 8 13 14 12 11 11 8 7 8
7 7 6 6 5 5 5 4 4 4 4 5 4 3 3 2 2 3 2 2 1 1 1 1 0 1 1 1 1 1 1 1 2 1 1 0 1 1 1 2 1 1 1 0 0 1 2 2 1 2 3 5 5 4 4 4 6 8 7 10 9 9 8 8 9 9 9 8 7 6 6 4 4 4 3 6 13 14 12 11 11 12 10 10 10
7 7 6 6 5 5 4 4 4 4 5 5 4 3 2 2 2 2 2 2 3 2 1 1 1 1 1 1 1 0 1 1 2 1 1 0 0 1 1 1 1 1 2 1 1 1 2 2 1 1 2 1 3 4 1 3 4 5 6 5 6 8 8 7 8 8 8 8 6 6 7 4 4 6 2 4 8 6 9 11 11 12 11 11 12
6 7 6 6 5 5 5 5 5 5 5 4 3 2 3 3 3 2 1 3 2 2 2 2 1 2 2 1 1 2 1 1 2 1 2 1 1 1 1 1 2 2 2 2 2 1 2 2 1 1 1 1 1 1 4 5 3 1 2 4 5 7 7 4 4 3 6 6 6 5 3 6 6 3 3 12 10 10 11 10 11 10 10 9 9
7 6 6 6 6 6 5 5 5 5 4 5 4 5 4 4 4 4 3 2 2 2 3 3 1 1 1 1 2 3 3 1 2 1 1 1 1 1 1 2 3 2 2 1 2 2 2 2 3 2 1 0 0 1 1 1 1 2 3 3 4 3 3 5 4 3 7 7 6 5 5 9 8 9 11 12 11 8 8 10 10 9 9 10 11
7 7 6 6 7 7 6 5 5 5 5 5 5 6 5 5 5 4 4 3 4 3 3 2 1 2 2 1 1 2 2 3 3 1 1 1 2 1 1 1 3 2 1 2 2 3 2 3 3 3 1 1 1 1 1 1 3 4 4 2 2 1 2 5 9 12 11 8 6 6 7 8 6 5 4 10 11 9 9 8 9 9 9 10 9
7 7 7 7 7 7 6 6 5 5 5 5 6 7 6 6 5 4 6 5 4 2 3 2 2 1 1 2 2 3 2 2 4 1 1 3 2 1 2 1 2 1 1 2 2 2 2 3 2 2 2 1 0 1 2 2 2 3 3 3 3 2 2 4 5 5 5 5 4 4 5 4 3 3 5 5 5 5 6 7 7 6 5 6 6
7 7 8 7 7 7 7 6 6 5 5 5 6 5 6 6 5 5 6 6 4 2 2 3 2 2 2 2 3 3 1 1 3 3 1 1 0 1 0 1 1 0 1 0 1 1 1 2 2 2 2 1 0 0 1 2 2 2 1 3 3 4 3 3 4 5 5 6 5 5 5 4 3 2 2 2 2 2 2 2 0 1 2 3 4
8 8 7 8 7 7 7 7 6 5 5 5 7 7 6 6 5 5 5 4 4 3 4 3 3 2 2 2 2 3 2 3 3 1 3 2 2 2 2 1 1 2 2 1 1 1 1 1 1 1 2 2 1 1 1 2 2 1 2 3 3 2 2 2 1 2 3 4 4 4 4 3 3 3 2 2 3 3 2 2 1 0 1 2 3
8 8 8 8 7 7 7 7 6 6 6 7 8 7 4 4 5 5 4 4 5 4 3 3 4 3 3 3 3 1 2 4 3 4 3 2 4 3 3 3 3 3 3 2 2 0 1 0 0 1 1 2 1 1 1 1 1 2 2 2 1 1 2 2 2 2 2 2 2 3 3 3 3 3 2 1 2 3 3 3 3 2 1 1 2
8 8 8 9 8 8 8 7 7 7 7 8 8 6 7 6 6 5 5 4 4 4 3 3 5 4 4 3 2 1 2 2 2 2 3 3 3 5 4 2 3 3 3 3 2 2 1 1 1 2 1 1 1 1 1 1 1 1 1 2 2 2 1 1 3 4 4 2 2 1 1 1 1 1 2 2 2 2 2 3 3 3 3 2 2
8 8 8 9 9 8 8 8 8 7 8 8 8 7 6 7 7 7 6 6 4 4 5 4 4 3 4 3 3 2 2 2 3 3 1 3 2 4 4 5 5 3 3 4 4 3 2 2 2 3 2 2 1 1 1 1 1 2 1 2 2 4 4 4 3 4 3 3 3 3 2 2 2 2 2 2 3 3 3 3 3 3 3 3 3
7 8 9 9 9 9 8 8 7 7 8 9 9 7 7 7 7 7 7 7 5 5 5 4 3 3 4 4 4 4 3 4 4 4 3 3 3 4 4 5 4 3 3 1 3 4 3 3 3 3 2 2 2 2 2 2 2 3 2 3 4 5 4 5 6 6 5 5 5 5 5 4 4 4 4 4 4 4 5 5 5 5 5 5 5
8 8 9 10 9 8 8 8 8 9 9 9 9 7 6 6 6 6 6 6 5 5 5 5 5 4 5 5 5 4 3 3 3 3 3 3 3 4 3 1 3 5 1 1 2 4 5 5 5 4 3 3 3 2 2 3 3 3 4 5 6 6 6 7 7 8 8 7 7 7 7 7 6 6 6 6 6 6 6 6 7 7 7 7 7
9 10 10 11 9 8 8 9 10 9 10 9 10 8 6 6 6 7 7 7 6 7 6 6 6 5 5 5 5 4 4 3 2 3 2 1 3 4 3 2 4 4 2 1 2 2 4 6 5 4 3 3 3 3 3 4 4 2 3 5 5 5 6 6 7 7 7 7 7 8 8 9 8 8 8 8 8 8 8 8 8 8 9 8 8
10 11 10 10 9 9 9 10 10 10 10 11 10 8 7 6 7 7 8 7 6 8 7 7 6 6 5 4 6 5 5 4 4 3 4 3 4 4 2 2 3 4 1 2 1 4 4 5 6 4 4 4 4 3 3 4 4 2 3 5 5 6 6 6 6 6 6 7 7 7 9 9 10 9 9 9 10 9 9 9 9 9 9 10 10
10 9 10 10 10 9 9 9 9 11 11 10 10 8 7 7 6 7 7 6 7 7 6 7 6 7 6 5 5 5 5 4 4 4 3 4 4 3 4 4 4 3 3 2 2 5 6 1 2 4 4 3 3 2 3 3 4 0 3 5 6 6 5 6 6 7 7 8 8 9 8 9 9 10 10 10 9 10 11 10 10 10 10 10 11
9 9 10 10 10 10 10 10 10 11 11 11 10 8 8 8 7 7 8 5 6 8 6 7 7 8 8 6 5 6 5 5 5 4 4 4 3 3 4 5 4 4 3 4 4 5 5 5 2 1 1 1 1 1 0 2 2 2 5 4 4 4 6 7 7 7 7 8 8 9 10 10 11 11 11 11 11 11 11 11 11 10 10 10 10
9 9 9 10 10 10 10 10 11 12 12 12 11 8 8 8 8 8 8 7 7 8 7 7 7 8 7 8 6 6 5 5 5 5 4 4 4 4 5 5 5 5 4 4 4 4 4 5 5 2 1 2 2 1 2 1 1 2 2 3 2 3 3 5 6 6 6 7 8 8 9 9 10 10 11 12 12 12 12 11 10 10 10 9 10
9 9 10 11 10 11 10 10 10 12 12 12 11 9 9 8 8 8 8 7 7 6 6 7 7 6 7 6 6 6 5 5 6 6 5 5 5 5 5 5 5 6 5 5 4 3 3 3 5 2 3 3 3 2 1 2 4 3 2 2 2 1 1 3 4 5 6 6 7 8 8 8 8 9 9 10 11 11 11 11 11 11 11 10 10
10 10 10 11 10 10 11 11 10 12 12 12 10 9 9 8 8 8 8 8 7 7 7 7 7 6 7 8 6 6 5 6 6 5 5 5 5 4 5 4 5 6 5 4 6 2 2 3 3 3 4 4 2 2 3 3 3 3 3 2 3 2 2 4 6 6 6 6 7 8 8 8 8 8 8 9 9 9 11 11 11 11 11 10 10
11 12 11 12 12 12 11 12 12 12 12 13 11 10 9 9 8 8 8 9 9 8 8 7 6 7 8 8 7 6 5 5 5 5 5 5 5 5 5 5 5 6 5 5 6 5 3 3 2 4 5 4 3 4 4 3 3 4 3 3 2 3 4 3 8 8 7 7 7 7 7 7 8 8 9 9 9 8 9 10 10 10 10 10 10
12 12 13 13 12 12 13 12 13 12 12 13 10 9 9 9 9 9 9 10 10 8 8 8 8 7 8 8 8 8 6 6 6 6 6 6 6 5 5 5 5 5 6 6 6 6 3 2 3 3 4 4 5 5 5 5 4 4 5 4 4 4 3 3 3 8 7 6 6 6 6 7 7 8 8 9 9 9 9 9 9 8 8 8 7
13 13 14 13 12 13 13 13 13 12 12 11 11 10 10 10 10 8 9 10 11 10 9 9 9 7 8 8 8 8 7 8 7 7 7 7 7 7 6 6 6 6 6 6 6 6 6 3 4 4 4 5 6 5 5 6 5 5 5 5 4 4 4 4 4 2 9 6 6 6 6 7 7 7 7 7 8 8 8 9 9 9 8 7 5
13 13 14 14 13 13 13 13 13 12 12 12 11 11 11 12 12 10 10 11 12 11 11 11 10 9 9 8 9 8 6 8 8 8 8 8 8 8 8 7 7 7 7 7 6 6 7 5 4 5 6 6 7 5 6 5 4 4 5 5 5 4 4 3 4 5 3 1 3 4 5 6 7 6 6 5 5 5 6 6 7 7 7 8 7
13 13 14 14 13 13 14 14 14 13 12 12 11 12 12 12 12 12 11 11 11 12 12 12 11 10 10 9 9 9 9 9 9 8 8 8 8 8 9 8 8 8 7 7 7 6 6 6 4 6 5 5 6 6 5 4 5 5 5 5 4 5 4 3 3 4 1 2 5 5 5 6 6 7 6 6 5 4 5 6 6 6 7 7 7
15 13 13 13 13 13 14 14 15 14 13 13 13 13 12 12 12 12 12 12 12 12 12 12 11 11 11 11 10 10 10 10 10 9 9 10 9 9 9 8 8 8 7 7 7 7 7 7 5 5 5 5 5 4 4 5 5 5 5 5 5 4 4 4 4 2 3 5 6 6 5 5 6 6 6 6 6 5 6 6 6 6 6 7 7
16 15 15 14 13 15 15 15 15 14 13 13 13 13 13 13 12 12 11 12 12 12 12 11 11 11 11 12 11 11 11 12 11 11 11 12 10 10 11 9 8 8 8 8 7 8 8 8 7 5 5 6 6 6 4 5 6 6 5 5 5 5 4 4 2 2 2 2 3 1 4 6 6 5 6 5 5 5 6 7 8 8 8 8 8
17 16 16 16 14 15 15 15 15 14 14 13 13 13 13 12 13 13 12 12 12 11 11 12 12 12 12 12 12 12 13 13 13 12 12 12 10 12 11 10 9 9 9 8 8 8 9 8 7 7 6 6 6 5 3 3 4 5 5 5 5 3 3 2 2 1 1 2 1 6 4 6 8 8 2 4 5 6 7 7 8 9 9 9 10
18 17 17 17 15 15 15 15 14 13 13 13 13 13 13 12 12 12 13 12 12 11 11 12 12 12 13 13 13 14 15 14 13 13 12 10 9 10 9 9 9 9 9 8 8 8 8 9 8 8 7 6 6 4 3 3 4 4 4 4 5 4 3 1 2 3 2 2 3 4 2 4 7 7 8 8 9 8 9 9 11 10 10 9 9
15 17 17 17 16 16 15 14 14 13 13 13 12 12 13 13 12 13 13 13 12 12 12 12 12 12 12 12 13 14 15 15 17 14 12 9 8 8 8 9 9 9 9 8 8 8 8 8 8 7 8 7 6 6 6 5 5 5 4 4 4 3 2 2 1 1 1 2 3 1 3 5 5 5 5 5 6 6 7 8 8 10 10 10 9
15 15 16 16 17 16 15 15 14 13 13 12 13 18 16 13 13 12 12 12 13 12 12 11 12 13 13 12 12 17 16 17 17 16 12 12 12 10 8 9 10 10 10 9 9 9 9 9 9 8 9 7 7 7 7 5 4 4 5 5 5 2 1 3 2 2 4 4 3 3 5 4 4 5 5 6 6 5 5 5 5 4 4 6 8
16 15 15 17 16 15 16 16 16 14 13 12 17 18 19 18 14 13 12 12 13 13 12 12 12 12 12 12 11 12 13 12 13 15 14 14 13 13 11 11 12 11 10 11 10 10 9 9 8 8 8 8 8 6 6 5 5 6 6 5 3 1 3 3 4 2 3 4 4 3 5 4 4 5 6 6 6 6 5 6 3 3 6 8 9
16 15 15 16 15 15 14 16 16 15 14 15 17 19 20 20 17 13 12 12 12 12 12 12 11 11 11 11 10 8 10 12 12 12 13 13 13 14 15 14 13 15 13 11 10 9 9 9 8 9 8 8 7 6 6 6 6 6 5 3 3 4 4 4 4 5 1 3 3 6 7 6 6 6 6 5 6 6 6 5 6 8 8 9 9
15 16 16 16 16 15 15 16 16 16 15 16 19 20 21 21 21 17 12 12 12 12 13 13 12 11 10 10 9 9 9 15 13 11 11 12 13 15 15 15 15 15 15 14 12 10 8 9 9 9 9 7 8 8 7 7 5 6 5 5 5 5 5 5 5 6 3 3 3 6 7 6 5 6 7 6 7 6 7 6 5 6 7 8 9
17 17 17 17 16 17 17 16 15 14 16 15 20 21 21 22 21 19 13 13 13 13 14 13 11 11 11 10 10 10 10 11 11 12 11 11 10 10 11 12 12 14 15 15 13 11 8 9 9 10 8 8 7 6 6 6 6 6 6 5 4 4 5 7 6 6 5 3 5 6 7 6 4 5 7 7 6 7 7 6 5 9 10 10 10
18 19 20 18 18 19 18 19 17 15 15 15 21 21 21 21 21 18 14 12 11 12 12 13 11 11 12 11 11 11 11 11 11 13 13 12 10 9 11 12 13 13 13 13 12 10 9 9 9 10 9 7 7 5 4 5 6 6 6 5 5 5 4 4 5 6 6 6 5 3 5 4 4 5 6 6 6 7 7 7 6 8 9 10 10
18 19 16 16 18 21 20 21 19 18 15 16 20 21 21 20 20 13 14 13 14 12 11 12 11 10 11 11 12 12 12 13 13 15 13 11 11 11 11 11 11 12 12 11 11 12 11 9 9 9 7 4 2 4 5 5 5 5 3 2 4 4 4 5 6 5 6 2 5 4 4 5 4 6 6 6 6 7 7 7 7 7 9 9 10
17 17 17 19 19 19 20 22 20 18 18 14 20 21 20 20 15 12 12 12 16 15 12 11 10 10 11 12 13 12 12 13 14 17 16 12 10 10 10 11 10 10 10 5 6 11 11 9 5 2 1 4 8 8 8 5 4 4 4 4 5 5 5 6 6 5 4 2 3 3 4 6 5 5 6 6 7 8 8 7 6 5 7 8 10
18 19 19 17 19 20 19 21 20 19 17 14 22 22 23 23 20 14 12 13 17 16 14 12 10 10 12 15 15 13 13 13 16 18 18 14 11 10 10 11 11 10 9 7 5 3 5 5 5 5 6 7 8 7 7 8 6 5 8 6 6 5 6 5 5 4 3 3 2 2 3 5 5 5 6 6 7 7 6 5 6 7 8 10 13
16 15 16 17 18 17 18 21 21 21 19 18 24 24 26 25 20 13 12 13 17 16 15 14 13 12 12 13 17 14 14 13 18 19 18 15 12 11 11 10 10 11 10 9 8 8 7 6 5 5 4 4 6 6 7 9 8 9 9 6 4 4 5 4 4 3 4 4 4 4 3 5 5 5 5 6 7 6 5 5 7 7 7 7 8
Wind_Direction
238 243 251 262 273 277 280 287 299 301 314 319 324 320 320 319 324 332 342 341 336 340 337 318 318 264 280 309 288 285 295 289 284 264 267 278 248 160 191 212 231 221 221 234 240 94 274 241 198 208 243 260 239 229 237 207 205 208 221 208 211 201 198 197 194 196 201 204 201 196 195 197 196 196 194 199 206 208 221 232 252 257 263 279 289
237 246 255 264 269 272 275 281 294 304 302 310 312 302 302 307 310 316 330 331 329 334 329 320 295 247 266 294 293 285 286 277 276 266 256 242 242 194 177 210 224 226 214 232 215 177 223 242 221 212 226 242 256 239 219 230 225 170 207 218 219 205 211 212 210 202 207 211 212 212 208 210 215 212 206 210 212 219 227 239 247 261 266 274 276
244 247 253 262 268 273 277 288 288 297 303 298 301 298 304 309 329 323 330 325 323 327 317 318 304 282 315 290 281 279 286 292 295 279 263 236 252 245 167 193 215 215 223 211 210 201 213 233 223 219 223 244 244 244 232 225 209 221 217 215 226 221 225 225 227 217 216 216 211 226 219 216 216 221 224 215 218 225 234 244 251 253 261 267 273
244 248 251 255 265 270 276 281 290 298 297 300 302 301 298 322 335 335 332 309 313 313 313 304 306 328 312 310 309 298 317 313 283 297 301 299 269 249 233 174 194 209 217 227 219 207 219 221 228 226 218 230 232 223 234 224 205 209 205 200 225 236 239 237 250 253 228 229 209 219 238 231 230 227 238 236 228 231 240 245 256 262 264 265 263
231 238 241 250 258 264 270 275 284 292 296 292 281 267 259 264 254 281 300 304 298 306 289 277 280 9 6 88 23 9 359 328 342 335 335 329 300 263 240 220 190 182 196 225 224 237 193 217 230 225 223 220 221 219 226 225 219 211 205 212 208 207 227 240 250 260 249 242 236 223 235 238 242 237 238 242 244 253 255 262 265 271 271 275 275
230 231 238 250 250 253 263 272 279 286 284 263 253 242 263 276 295 296 307 302 315 328 310 289 242 190 157 93 29 352 321 299 322 333 338 345 355 294 237 222 220 228 186 179 216 220 217 204 228 228 230 221 222 224 229 229 225 225 215 217 214 208 224 233 238 252 284 285 264 274 289 262 244 239 240 244 247 241 249 252 256 261 269 271 272
221 230 237 244 249 252 255 265 274 283 274 242 253 250 250 260 284 305 315 306 320 14 348 344 326 187 134 59 18 346 318 311 315 317 336 0 333 307 236 236 232 242 226 249 161 165 149 245 214 238 230 230 219 223 229 235 236 240 253 239 222 212 214 226 238 250 266 276 270 121 267 315 300 282 277 278 274 281 266 254 247 247 253 261 269
221 222 235 240 245 252 254 257 256 266 261 246 237 250 245 254 270 299 318 325 306 66 75 79 92 148 135 260 87 318 338 338 346 328 351 349 10 29 180 219 247 250 289 282 322 109 110 63 342 201 229 226 231 233 223 234 238 227 237 242 236 210 218 242 241 235 256 256 252 222 201 245 280 286 272 302 289 281 283 274 268 261 249 247 252
220 221 231 238 240 245 250 245 237 252 248 238 239 248 249 254 252 309 331 299 290 102 84 85 89 77 217 33 110 111 333 347 15 321 13 332 16 105 143 159 276 285 258 279 334 52 120 108 244 194 215 230 241 229 217 210 223 227 239 243 236 203 215 239 245 238 240 258 254 242 233 236 249 262 277 275 302 306 297 293 283 274 267 262 271
220 221 228 236 241 243 250 225 227 228 237 232 242 229 232 283 296 317 303 278 259 98 95 89 67 201 10 35 109 214 339 303 324 0 356 21 31 34 44 42 342 335 318 351 17 38 63 136 164 172 200 341 232 249 224 210 214 222 229 237 234 228 215 218 225 234 227 237 254 257 228 243 246 189 290 323 324 307 287 277 286 298 303 297 295
220 218 225 230 231 233 237 221 214 218 222 232 233 222 221 192 311 293 201 259 244 103 48 27 79 348 283 79 122 309 269 262 291 332 23 10 54 76 153 96 59 237 290 286 147 121 69 30 79 84 100 117 254 243 239 230 204 202 223 235 234 227 226 224 223 229 225 220 239 244 243 240 237 226 220 247 275 263 269 277 287 283 282 280 281
218 217 221 226 231 231 226 209 210 209 219 235 237 233 214 204 257 257 234 175 167 176 169 197 273 310 2 55 100 201 255 300 295 217 194 136 58 44 93 120 133 346 329 254 48 81 96 95 115 142 122 159 206 217 221 228 225 211 217 226 226 223 226 227 227 231 235 237 243 252 237 222 240 239 214 228 249 252 261 275 286 285 276 280 279
219 216 217 219 227 233 221 215 209 211 217 231 232 238 176 208 243 235 241 210 176 167 123 247 266 260 182 256 131 84 212 270 289 270 209 186 47 84 87 104 70 61 54 60 90 111 118 125 131 144 132 130 172 181 187 264 236 238 238 225 227 229 224 225 229 231 235 238 233 243 248 248 255 259 305 243 259 271 261 267 281 283 272 273 274
218 216 218 218 222 223 219 218 206 210 217 220 205 198 199 197 232 241 204 221 198 181 138 200 188 301 306 230 174 124 82 202 239 241 205 184 164 115 79 26 62 78 81 101 113 111 95 94 111 105 115 151 190 180 151 207 195 159 297 264 283 258 235 226 245 223 264 238 245 244 281 286 279 319 299 265 256 255 259 259 268 273 266 278 281
219 215 218 217 223 225 221 215 211 207 203 209 216 231 227 206 222 258 195 186 176 134 158 249 320 89 70 274 197 202 148 162 180 221 222 208 201 133 117 86 76 78 82 79 75 73 56 58 72 59 58 74 178 176 141 73 71 143 175 189 205 150 186 192 204 226 261 234 238 234 244 253 245 235 211 244 249 252 255 265 268 276 268 264 270
216 216 215 217 219 223 223 215 212 205 213 216 224 239 224 218 230 224 213 208 198 162 138 152 224 182 208 268 86 252 194 188 188 170 211 208 218 182 123 120 102 87 78 54 42 46 52 63 62 58 39 11 147 162 130 57 124 187 177 192 148 171 166 166 161 179 215 228 220 199 212 228 244 250 220 213 220 239 248 260 262 261 263 260 263
217 214 215 219 219 221 221 217 213 204 208 224 228 240 231 239 233 205 204 234 254 194 129 155 165 267 169 179 165 202 242 132 201 138 254 211 184 208 118 185 90 94 29 54 49 53 80 92 92 97 87 74 123 134 131 128 142 149 145 134 114 143 134 143 130 127 132 137 130 148 164 172 160 140 129 135 184 206 216 231 246 260 269 268 270
215 216 216 218 218 217 218 218 213 204 207 227 242 241 229 232 209 210 211 214 249 233 170 130 132 176 238 297 334 356 222 117 230 187 101 315 268 39 356 6 82 144 129 132 87 87 94 91 110 117 110 124 100 106 94 120 109 116 102 97 116 110 94 78 118 129 116 122 133 137 138 142 136 126 98 84 92 84 93 137 141 21 341 334 327
216 213 212 214 218 214 214 217 215 210 205 219 237 235 230 218 195 207 213 184 188 222 224 161 131 166 186 228 259 264 283 194 214 168 212 181 262 211 166 201 197 206 197 226 135 136 99 79 122 118 138 169 180 169 184 127 118 89 98 124 157 162 139 146 109 109 132 136 142 154 155 150 153 148 147 136 119 120 121 123 125 75 332 311 314
213 208 208 211 213 213 210 214 215 208 220 228 237 238 214 183 196 203 195 183 193 217 225 188 207 154 167 194 209 244 249 251 259 252 283 233 194 210 207 206 210 208 193 197 224 112 97 269 210 163 164 168 186 180 164 160 166 171 166 126 151 165 169 229 244 221 192 173 160 160 162 158 148 156 169 167 148 148 156 162 164 173 195 251 303
205 208 205 209 209 210 205 209 210 210 228 240 241 217 193 184 182 188 190 188 198 207 209 205 213 184 156 173 191 217 208 229 200 222 235 227 201 196 203 181 231 210 204 192 192 220 210 207 286 293 256 208 190 199 192 192 186 199 191 152 290 306 281 220 221 230 231 238 231 187 184 172 156 139 164 190 216 218 210 203 196 196 208 224 270
201 206 206 207 210 210 207 209 211 211 227 234 234 212 191 192 192 191 188 188 187 197 206 208 208 207 201 165 177 174 205 208 206 201 204 257 237 209 216 211 219 202 185 207 205 219 220 223 226 234 244 248 228 218 229 224 217 230 167 154 260 281 290 292 291 275 262 261 267 270 258 230 219 235 238 244 248 252 253 257 253 242 242 251 255
201 201 207 207 209 210 212 209 209 204 226 232 231 209 198 195 193 188 185 188 183 193 201 208 204 204 199 196 197 202 212 221 221 218 216 199 222 237 226 232 264 219 168 208 222 229 237 234 244 253 258 260 252 252 249 256 218 224 176 196 227 246 254 253 259 264 265 265 261 259 258 257 250 245 245 241 245 258 266 265 268 267 263 261 261
202 206 206 208 205 210 212 216 218 225 226 229 233 208 203 188 182 184 188 190 184 187 198 201 202 204 216 211 211 220 212 241 238 223 236 251 245 260 260 237 255 251 160 182 223 238 237 242 240 243 236 250 259 271 271 263 258 169 229 208 208 216 229 236 239 240 239 245 251 255 259 262 263 260 261 259 255 255 261 265 266 268 269 270 270
201 207 208 203 199 202 209 220 225 223 228 227 227 203 192 188 187 191 191 184 186 189 191 203 203 209 215 215 217 219 215 218 229 233 218 225 233 243 242 236 252 244 223 270 248 226 236 242 242 246 243 244 253 247 264 267 278 182 213 266 211 236 239 246 246 246 245 244 248 253 258 259 256 254 256 259 263 266 266 269 273 275 276 277 277
201 205 204 197 198 199 203 215 220 224 225 225 220 195 190 192 191 194 195 193 187 190 199 203 201 211 219 209 216 212 220 203 204 214 217 211 219 231 190 205 253 267 322 244 230 264 225 224 238 236 242 248 257 255 256 276 272 191 217 277 256 225 244 261 274 282 278 277 271 265 265 267 267 265 260 260 261 261 261 265 271 275 279 281 282
204 202 193 193 195 194 197 203 213 225 225 223 215 191 187 189 193 197 198 189 189 191 198 198 198 200 200 208 216 219 211 203 212 218 231 235 231 217 193 197 213 241 247 240 266 248 265 253 233 232 231 233 244 247 252 270 284 56 217 241 255 237 231 251 269 275 281 282 283 281 278 277 276 275 272 269 264 268 269 266 266 267 271 276 277
204 197 195 196 197 198 197 207 217 223 225 221 208 189 185 191 191 192 199 185 190 192 199 199 206 202 206 202 205 224 198 203 210 216 219 229 220 210 202 217 226 229 222 247 238 249 238 251 204 213 209 204 171 173 108 231 254 176 222 237 239 238 203 228 243 256 268 279 285 288 289 292 293 293 290 284 277 275 272 270 266 264 262 264 268
205 201 201 199 200 198 200 206 212 225 227 221 209 190 183 189 192 189 197 190 190 195 197 199 208 208 206 197 206 214 202 189 196 206 204 207 212 210 218 220 214 251 243 246 238 259 221 233 255 134 126 134 138 134 164 203 140 222 220 229 232 251 184 209 239 263 273 278 282 285 289 288 289 288 286 286 286 284 282 275 270 269 268 266 267
205 203 201 200 201 196 201 201 206 221 222 221 206 190 186 194 194 192 195 184 187 191 197 203 205 205 208 201 203 216 204 196 204 203 190 199 201 206 213 221 220 230 242 259 270 241 247 209 250 206 166 169 187 168 188 206 125 237 208 219 232 234 90 238 262 268 274 281 285 288 285 284 282 282 282 284 286 284 282 278 276 276 274 272 273
199 200 201 205 202 199 201 202 205 215 218 219 200 188 188 196 192 193 188 184 189 193 192 194 204 201 203 207 201 212 203 212 215 205 192 194 200 202 209 206 212 226 236 234 259 210 235 253 233 242 182 195 207 220 213 216 175 218 223 209 220 130 234 226 226 237 252 260 270 272 278 280 283 284 284 281 279 279 280 279 277 278 278 278 278
202 201 205 209 207 205 203 205 206 210 213 218 206 188 189 198 194 196 189 185 194 197 197 194 198 197 203 208 203 206 198 203 210 209 198 201 203 204 201 202 210 218 218 227 237 253 192 246 248 201 213 201 222 241 235 229 161 201 236 222 167 161 218 235 188 205 219 233 242 255 260 270 275 279 282 284 282 274 270 267 270 271 273 277 280
200 202 204 207 207 206 207 204 205 205 206 207 194 188 191 195 197 194 188 186 194 198 195 195 196 193 201 206 208 206 200 203 208 211 208 198 200 205 199 201 210 202 206 213 231 245 212 196 228 231 196 225 229 228 235 225 207 198 212 225 219 229 241 255 262 184 201 225 250 257 264 266 267 270 274 278 278 278 279 277 279 278 279 283 289
198 203 205 206 206 205 207 205 201 201 196 191 188 188 192 195 198 193 195 191 195 199 197 200 193 193 194 203 207 201 197 210 211 211 210 208 203 206 199 206 211 204 203 215 228 243 256 180 217 215 221 212 247 224 233 232 219 205 215 217 220 231 236 263 278 274 167 221 237 251 264 269 272 270 267 266 269 276 283 291 294 298 299 297 290
201 204 206 207 204 203 205 205 202 203 199 195 193 190 194 194 196 197 197 195 198 199 199 202 195 188 191 198 203 196 192 207 212 216 212 211 211 213 210 207 214 214 200 211 223 231 239 234 206 222 217 216 233 231 222 231 236 231 236 241 244 227 229 258 289 310 126 300 285 275 267 271 274 278 276 273 279 281 284 285 291 298 308 311 307
203 201 207 206 204 202 205 206 206 203 200 197 195 194 194 195 197 198 197 198 200 203 203 201 196 189 193 193 201 197 193 204 211 210 212 209 208 210 214 210 213 216 207 203 215 231 229 238 193 224 217 224 221 236 240 239 243 230 238 253 246 257 264 264 280 291 24 343 305 297 291 286 289 297 301 301 303 298 294 293 295 299 300 301 302
205 201 202 205 206 205 207 208 209 206 202 198 196 197 196 197 198 199 198 199 203 204 205 202 194 191 190 197 195 191 191 203 209 211 208 206 209 209 213 211 210 213 209 204 208 215 225 230 224 206 219 222 236 245 241 249 236 236 238 242 254 262 255 266 274 268 231 232 252 264 274 270 274 281 291 300 302 305 305 304 302 298 290 284 286
204 205 202 202 205 207 208 209 206 204 202 199 197 197 196 195 197 201 201 202 205 205 206 204 196 193 194 198 195 191 194 201 209 208 204 205 203 207 210 208 207 210 212 205 204 210 221 232 233 227 200 223 225 230 227 236 254 255 245 234 231 232 241 254 269 291 301 305 321 294 217 236 209 226 252 273 286 288 291 297 299 298 294 289 281
204 205 206 205 205 207 209 209 208 204 201 199 198 197 195 193 194 198 203 205 205 205 208 206 201 197 197 198 197 197 199 202 207 205 201 199 201 205 203 205 204 210 216 214 203 208 216 226 230 234 239 224 228 238 187 208 247 264 272 271 263 229 233 256 276 253 284 318 290 196 257 308 311 299 327 285 270 263 266 269 273 269 270 273 279
206 206 207 205 205 205 208 209 209 205 201 201 199 197 194 193 193 197 202 204 203 205 207 204 202 200 200 201 202 203 205 204 205 209 201 196 192 200 198 199 202 208 220 218 208 210 216 222 231 239 232 235 232 230 198 210 233 225 231 249 263 261 254 243 288 302 319 296 315 351 206 239 244 233 242 249 243 234 249 256 245 238 239 250 259
206 209 209 208 206 206 207 208 207 205 205 205 201 194 193 196 196 199 202 203 202 204 206 202 200 201 202 205 206 211 207 204 203 207 203 190 183 195 196 193 201 207 216 219 214 212 217 223 228 229 241 236 226 233 226 217 223 230 179 215 238 236 258 275 278 320 297 310 307 226 265 273 279 293 293 291 285 265 258 241 270 243 228 226 235
205 205 209 209 209 206 204 206 207 207 208 208 199 189 190 193 194 199 200 203 203 206 203 199 202 202 205 206 210 211 208 205 207 210 205 196 201 204 196 192 199 206 212 217 216 215 219 222 227 232 238 232 231 229 241 227 199 198 215 209 228 222 250 280 259 196 170 208 226 221 245 225 222 264 269 274 271 256 265 261 282 327 319 293 274
207 206 206 210 211 210 208 207 208 209 209 210 192 187 192 193 194 197 198 200 202 204 201 196 202 202 205 206 213 207 208 209 212 208 202 202 202 211 215 205 203 203 208 214 220 218 217 225 230 233 239 247 247 242 233 212 206 214 225 213 213 229 264 276 283 194 183 210 203 247 258 237 212 244 260 268 279 280 282 275 298 269 265 271 275
206 206 208 210 212 212 212 212 213 212 213 206 185 188 191 195 197 201 202 205 202 203 202 202 204 202 199 197 202 201 205 207 209 200 202 202 204 210 217 220 214 214 214 214 218 219 218 225 228 233 242 246 247 227 215 206 210 212 216 208 223 242 245 245 251 269 202 183 254 268 276 283 279 274 275 274 288 291 287 301 292 276 277 277 279
205 207 210 211 214 213 214 214 215 216 219 195 185 187 192 195 198 203 211 209 205 202 199 203 203 199 191 187 185 193 201 200 201 198 196 204 210 214 220 220 220 217 219 222 223 231 227 222 230 236 232 232 234 227 209 207 204 219 213 233 236 228 239 249 264 276 253 192 258 271 276 291 285 284 292 296 297 297 290 254 240 269 278 280 282
212 213 214 212 213 218 218 217 217 218 223 191 183 186 192 193 196 199 215 210 209 202 199 201 202 196 187 176 181 192 197 194 198 200 201 207 207 211 220 225 225 219 218 221 222 228 241 238 234 237 226 210 221 225 211 188 197 219 234 239 222 229 252 267 275 274 279 218 260 289 290 283 271 294 293 298 300 292 285 294 290 282 284 286 287
213 216 217 215 219 222 220 224 222 219 224 185 181 186 191 192 195 197 212 216 211 205 201 203 199 190 183 180 185 189 188 192 196 193 199 203 208 218 224 224 226 229 220 216 211 211 213 223 231 235 239 216 226 236 200 186 199 226 245 243 246 262 279 298 281 266 263 241 237 230 270 291 292 278 284 295 297 292 294 300 263 264 276 283 285
218 220 216 215 218 222 220 225 225 225 224 181 181 183 188 192 190 198 212 216 220 211 203 206 200 191 183 185 188 190 187 195 194 189 197 202 206 217 221 224 225 225 226 218 198 191 203 206 212 227 235 226 171 198 176 186 204 206 196 208 234 233 240 251 264 268 273 218 186 228 266 280 288 287 297 298 294 287 295 296 295 256 266 274 278
208 210 215 218 220 220 218 225 223 226 231 177 179 180 185 186 182 203 208 217 224 222 213 209 202 193 186 187 194 198 187 199 186 184 195 196 209 218 217 218 220 221 223 162 146 176 187 188 175 177 184 139 127 116 122 141 198 215 206 208 222 227 233 258 263 262 261 241 198 217 269 282 287 295 297 298 291 288 288 287 291 272 236 251 265
209 213 216 217 221 223 216 221 219 221 226 178 178 177 182 181 186 197 202 213 225 224 225 219 214 203 203 183 196 194 190 196 170 184 191 191 209 210 211 214 213 217 217 194 177 135 110 114 128 155 169 146 128 154 164 169 157 186 207 215 220 235 246 252 266 270 276 259 241 179 251 274 304 299 294 293 289 274 272 278 290 290 263 239 236
214 210 210 213 215 213 216 218 208 209 218 196 175 178 183 181 187 195 198 212 224 224 223 223 218 215 210 188 191 197 195 185 169 185 188 190 207 206 206 211 211 214 214 195 188 166 165 171 167 163 166 168 179 194 192 187 182 205 220 233 246 226 247 257 259 246 258 250 133 146 264 292 301 303 305 305 300 300 292 289 291 295 298 304 305